Regional Weather Roundup
Issued by NWS Upton, NY

Current Version | Previous Version | Text Only | Print | Product List | Glossary On
Versions: 1 2 3 4 5 6 7 8 9 10 11 12 13 14 15 16 17 18 19 20 21 22 23 24 25 26 27 28
000 ASUS41 KOKX 301104 RWROKX REGIONAL WEATHER ROUNDUP NATIONAL WEATHER SERVICE NEW YORK NY 700 AM EDT SAT JUL 30 2016 NOTE: "FAIR" INDICATES FEW OR NO CLOUDS BELOW 12,000 FEET WITH NO SIGNIFICANT WEATHER AND/OR OBSTRUCTIONS TO VISIBILITY. NYZ071-072-176-178-NJZ106-104-301200- NEW YORK CITY METRO AREA CITY SKY/WX TMP DP RH WIND PRES REMARKS Central Park CLOUDY 75 69 81 CALM 30.00R LaGuardia APRT CLOUDY 75 71 87 E8 29.97R Kennedy INTL PTSUNNY 74 70 87 SW6 29.98R Newark/Liberty CLOUDY 76 68 76 N5 29.97R Bronx Bot Gard N/A 73 68 83 N6 29.98R Wall St Helipt SUNNY 75 72 88 CALM 29.98R Teterboro CLOUDY 74 69 85 N6 29.97R $$ NYZ177-179-078>081-301200- LONG ISLAND NEW YORK CITY SKY/WX TMP DP RH WIND PRES REMARKS Farmingdale SUNNY 74 70 87 NE5 29.98R MacArthur/ISP MOSUNNY 73 71 93 CALM 29.98R Shirley SUNNY 69 69 100 CALM 29.99R FOG Riverhead NOT AVBL Westhampton SUNNY 67 64 90 CALM 30.00R Southhampton N/A 72 70 94 CALM 29.95R Bridgehampton N/A 68 68 100 CALM 29.97S East Hampton FAIR 68 66 94 CALM 29.98R Montauk N/A 71 69 93 CALM 30.00R $$ NYZ052-065-067-301200- HUDSON VALLEY CITY SKY/WX TMP DP RH WIND PRES REMARKS White Plains CLOUDY 72 67 84 NE6 29.99R Newburgh MOSUNNY 70 63 78 CALM 30.02R Montgomery CLOUDY 66 64 93 N3 30.01R Poughkeepsie MOSUNNY 68 62 81 N3 30.00R Albany PTSUNNY 65 59 81 N3 30.03R $$ NJZ001-105-106-008-010-013-015-019>022-104-301200- NEW JERSEY CITY SKY/WX TMP DP RH WIND PRES REMARKS Newark/Liberty CLOUDY 76 68 76 N5 29.97R Teterboro CLOUDY 74 69 85 N6 29.97R Caldwell CLOUDY 71 68 90 CALM 29.99R Morristown PTSUNNY 68 68 100 CALM 29.98R Somerville CLOUDY 70 68 93 CALM 29.97R FOG Linden FAIR 73 69 86 CALM 29.99R Sussex CLOUDY 68 66 93 CALM 30.01R Abdover N/A 68 66 93 VRB3 30.01R Trenton CLOUDY 74 71 91 CALM 29.98R Millville MOSUNNY 72 70 93 CALM 29.98R FOG Atlantic City SUNNY 72 69 90 CALM 29.99R Wrightstown NOT AVBL Toms River CLOUDY 69 68 96 CALM 29.99R Belmar SUNNY 71 69 93 SW3 30.00R $$ PAZ047>061-062-071-301200- EASTERN PENNSYLVANIA CITY SKY/WX TMP DP RH WIND PRES REMARKS Philadelphia PTSUNNY 76 73 91 S3 29.98R Allentown CLOUDY 73 69 87 CALM 29.98R FOG Scranton CLOUDY 69 62 78 E5 30.01R $$ CTZ002-004>006-009-010-012-RIZ004-006-007-MAZ004-011-015-301200- SOUTHERN NEW ENGLAND IN CT CITY SKY/WX TMP DP RH WIND PRES REMARKS Bradley INTL PTSUNNY 68 61 78 N6 30.01R Hartford SUNNY 72 63 73 N7 30.00R Danbury SUNNY 70 66 87 CALM 30.02R Wtrbury/Oxford NOT AVBL Bridgeport SUNNY 73 64 73 NE10 29.98R Meriden SUNNY 71 61 70 N7 30.00R New Haven MOSUNNY 70 66 87 N9 29.99R Chester FOG 68 68 100 N6 30.00R VSB<1/4 Groton FOG 71 68 90 N3 29.98R VSB 1 Wilimantic SUNNY 68 67 96 N3 30.01R IN RI CITY SKY/WX TMP DP RH WIND PRES REMARKS Providence MOSUNNY 72 65 78 NW5 29.99R Block Island SUNNY 71 69 93 NW6 29.99R Westerly SUNNY 71 67 87 CALM 29.99R FOG IN MA CITY SKY/WX TMP DP RH WIND PRES REMARKS Boston MOSUNNY 72 62 71 NW8 29.99R Worchester SUNNY 69 54 58 N8 30.03R Westfield SUNNY 66 62 87 N5 30.01R Provincetown PTSUNNY 68 68 100 NW3 29.99R Nantucket CLOUDY 71 68 90 N8 29.97R $$ ANZ330-335-338-340-345-350-353-355-301200- COASTAL MARINE OBSERVATIONS STATION/POSITION TIME SKY/WX TEMP WIND PRES VSBY WAVE AIR SEA DIR/SP/G HT/PER (UTC) (F) (DEG/KT/KT) (MB) (MI) (FT/S) NY HARB ENTRANCE 0950 72 72 280/ 4/ 4 1014.1 2/ 6 20S FIRE ISLAND 0950 74 74 220/ 2/ 2 1014.1 3/ 6 GREAT SOUTH BAY 1000 76 81 290/ 8/ 8 N/A 23 SSW MONTAUK P 0950 72 70 290/ 6/ 8 1014.9 3/ 6 15 E BARNEGAT LI 1000 78 N/A 3/ 6 HUDSON CANYON 0950 76 77 1014.1 3/ 6 KINGS POINT 1000 73 74 1014.3 EXECUTION ROCKS 1000 73 40/ 4/ 4 N/A CENTRAL LI SOUND NOT AVBL EASTERN LI SOUND 1000 70 69 10/ 2/ 4 N/A ROBBINS REEF 1000 74 250/ 5/ 6 1013.8 $$ >>>>>>>>>>>>>>>>>>>>>>>>>>>> KEY <<<<<<<<<<<<<<<<<<<<<<<<<<< > < > SKY/WX - Sky Condition/Present Weather < > TMP - Temperature in Fahrenheit < > DP - Dew Point in Fahrenheit < > RH - Relative Humidity in Percent < > WIND - Direction (from) and Speed in MPH < > PRES - Mean Sea Level Pressure (inches of Hg) < > WCI - Wind Chill Index < > VSB - VISIBILITY IN MILES < > HX - HEAT INDEX < > TC - TEMPERATURE IN CELSIUS < > VRB - VARIABLE WIND DIRECTION < > < >>>>>>>>>>>>>>>>>>>>>>>>>>>> KEY <<<<<<<<<<<<<<<<<<<<<<<<<<<

USA.gov is the U.S. government's official web portal to all federal, state and local government web resources and services.